This demonstration page uses our WeatherBlox Daily Observations layout. Learn more.

Left ArrowRight Arrow

Hourly Observations for November 8, 2020

Temp ( °F °C ) Dew Point ( °F °C ) Humidity (%) Winds ( mph kmh ) Pressure ( in mb ) Visibility ( mi km ) Precip ( " mm )
12:56 am 00:56 Clear 60 15.6 52 11.1 75 75 S 24 39 29.65 1004 10 16 0.00 0.00
1:56 am 01:56 Clear 59 15 51 10.6 75 75 S 26 43 29.64 1004 10 16 0.00 0.00
2:56 am 02:56 Clear 58 14.4 49 9.4 72 72 S 24 39 29.64 1004 10 16 0.00 0.00
3:56 am 03:56 Clear 57 13.9 48 8.9 72 72 S 23 37 29.64 1004 10 16 0.00 0.00
4:56 am 04:56 Clear 56 13.3 48 8.9 75 75 S 24 39 29.64 1004 10 16 0.00 0.00
5:56 am 05:56 Clear 55 12.8 48 8.9 77 77 SSE 28 44 29.62 1003 10 16 0.00 0.00
6:56 am 06:56 Clear 55 12.8 48 8.9 77 77 SSE 30 48 29.60 1003 10 16 0.00 0.00
7:56 am 07:56 Sunny 55 12.8 49 9.4 80 80 S 29 46 29.63 1003 10 16 0.00 0.00
8:56 am 08:56 Sunny 58 14.4 50 10 75 75 S 31 50 29.63 1004 10 16 0.00 0.00
9:42 am 09:42 Mostly Cloudy 61 16 50 10 68 68 S 31 50 29.62 1003 10 16 0.00 0.00
9:56 am 09:56 Mostly Cloudy 62 16.7 51 10.6 67 67 S 38 61 29.62 1003 10 16 0.00 0.00
10:24 am 10:24 Partly Cloudy 64 18 52 11 64 64 S 40 65 29.61 1003 10 16 0.00 0.00
10:31 am 10:31 Mostly Cloudy 63 17 52 11 68 68 S 39 63 29.63 1003 10 16 0.00 0.00
10:56 am 10:56 Cloudy 63 17.2 51 10.6 65 65 S 38 61 29.65 1004 10 16 0.00 0.00
11:18 am 11:18 Cloudy 64 18 52 11 64 64 S 36 57 29.62 1003 10 16 0.00 0.00
11:56 am 11:56 Mostly Cloudy 67 19.4 52 11.1 59 59 S 30 48 29.63 1004 10 16 0.00 0.00
12:56 pm 12:56 Cloudy 70 21.1 52 11.1 53 53 S 31 50 29.64 1004 10 16 0.00 0.00
1:56 pm 13:56 Partly Cloudy 69 20.6 52 11.1 55 55 S 31 50 29.64 1004 10 16 0.00 0.00
2:56 pm 14:56 Sunny 71 21.7 53 11.7 53 53 S 31 50 29.64 1004 10 16 0.00 0.00
3:56 pm 15:56 Mostly Sunny 71 21.7 52 11.1 51 51 S 26 43 29.66 1004 10 16 0.00 0.00
4:56 pm 16:56 Sunny 69 20.6 52 11.1 55 55 S 23 37 29.67 1005 10 16 0.00 0.00
5:56 pm 17:56 Clear 68 20 52 11.1 57 57 S 24 39 29.67 1005 10 16 0.00 0.00
6:56 pm 18:56 Clear 65 18.3 52 11.1 63 63 SSE 16 26 29.69 1005 10 16 0.00 0.00
7:56 pm 19:56 Clear 65 18.3 53 11.7 66 66 S 25 41 29.69 1005 10 16 0.00 0.00
8:56 pm 20:56 Mostly Clear 63 17.2 54 12.2 73 73 S 25 41 29.71 1006 10 16 0.00 0.00
9:56 pm 21:56 Clear 62 16.7 54 12.2 75 75 S 22 35 29.72 1006 10 16 0.00 0.00
10:56 pm 22:56 Clear 61 16.1 53 11.7 75 75 S 20 31 29.72 1007 10 16 0.00 0.00
11:56 pm 23:56 Clear 60 15.6 53 11.7 78 78 S 22 35 29.70 1006 10 16 0.00 0.00

Powered by AerisWeather